Location: Bęczków
(50.8761°N, 20.8028°E)
Time: 18:02:18
(UTC+02:00)

Envisat - Pass Details

Date: 28 March 2019
Orbit: 764 x 766 km, 98.2° (Epoch: 21 April)

Event Time Altitude Azimuth Distance (km) Brightness Sun altitude
Rises 19:16:31 0° 204° (SSW) 3,223 6.3 -12.2°
Reaches altitude 10° 19:19:19 10° 220° (SW) 2,302 5.7 -12.6°
Maximum altitude 19:23:12 22° 270° (W) 1,643 5.6 -13.2°
Drops below altitude 10° 19:27:05 10° 320° (NW) 2,314 6.5 -13.7°
Sets 19:29:56 0° 336° (NNW) 3,246 7.0 -14.1°
